Location: Newark
(9.4667°S, 159.8167°E)
Time: 01:54:10
(UTC+00:00)

Courier 1B Rocket - Pass Details

Date: 29 November 2019
Orbit: 920 x 1202 km, 28.2° (Epoch: 09 December)

Event Time Altitude Azimuth Distance (km) Brightness Sun altitude
Rises 06:56:11 0° 329° (NNW) 3,872 8.3 6.4°
Reaches altitude 10° 06:59:38 10° 345° (NNW) 2,968 7.5 5.6°
Maximum altitude 07:04:58 21° 32° (NNE) 2,305 6.6 4.3°
Drops below altitude 10° 07:10:30 10° 78° (ENE) 3,095 7.0 3.1°
Sets 07:14:10 0° 93° (E) 4,084 7.7 2.2°
